{"data":{"norad_id":67317,"intl_designator":"2026-002N","name":"STARLINK-36450","alt_names":[],"object_type":"PAYLOAD","status":"ACTIVE","operator":null,"country":"US","launch_date":"2026-01-04","launch_site_code":"AFETR","launch_vehicle":null,"mission":null,"orbit_class":"UNKNOWN","rcs_meters":null,"size_class":null,"mass_kg":null,"dimensions":null,"purposes":["comms"],"wikipedia_slug":null,"has_3d_model":false,"image_url":null,"decayed_at":null,"tle_current":{"epoch":"2026-09-19T10:07:37.220448Z","epoch_age_seconds":168597,"freshness":"FRESH","line1":"1 67317U 26002N   26262.42195857  .00009752  00000+0  36330-3 0  9993","line2":"2 67317  43.0005 311.5253 0000778 255.2827 104.7939 15.27591635 40866","mean_motion":15.27591635,"eccentricity":7.78e-5,"inclination_deg":43.0005,"raan_deg":311.5253,"arg_perigee_deg":255.2827,"mean_anomaly_deg":104.7939,"bstar":0.0003633,"rev_number":4086,"period_min":94.266030724893,"perigee_km":482.48045931733,"apogee_km":483.5480544529,"semimajor_km":6861.1512568851,"source":"CELESTRAK","updated_at":"2026-09-20T09:00:43.505294Z"}}}